Alexandria, MN

2:58 PM CST on December 06, 2019 (GMT -0600)
Chandler

Weather History for KAXN - October, 2019

Change the Weather History Date:

Sunday, October 13, 2019

  Actual Average Record
Temperature  
Mean Temperature 34 °F -  
Max Temperature 39 °F 57 °F 80 °F (1956)
Min Temperature 32 °F 39 °F 22 °F (1986)
Degree Days  
Heating Degree Days 30    
Moisture  
Dew Point 31 °F    
Average Humidity 89    
Maximum Humidity 96    
Minimum Humidity 73    
Precipitation  
Precipitation 0.02 in - - ()
Sea Level Pressure  
Sea Level Pressure 29.77 in    
Wind  
Wind Speed 12 mph ()    
Max Wind Speed 17 mph    
Max Gust Speed 28 mph    
Visibility 6.7 miles    
Events Snow    
Averages and records for this station are not official NWS values.
T = Trace of Precipitation, MM = Missing Value Source: Averaged Metar Reports

Daily Weather History Graph

Daily Weather History Graph

Search for Another Location

Airport or City:

Astronomy

Oct. 13, 2019 Rise Set
Actual Time 7:35 AM CDT 6:39 PM CDT
Civil Twilight 7:05 AM CDT 7:09 PM CDT
Nautical Twilight 6:30 AM CDT 7:43 PM CDT
Astronomical Twilight 5:56 AM CDT 8:18 PM CDT
Moon 7:05 PM CDT (10/13) 7:05 AM CDT (10/13)
Length of Visible Light 12h 04m
Length of Day
11h 04m
Full, 100% of the Moon is Illuminated
Oct 13
Full
Oct 13
Full
Oct 21
Last Quarter
Oct 27
New
Nov 4
First Quarter

Hourly Weather History & Observations

Time (CDT) Temp. Windchill Dew Point Humidity Pressure Visibility Wind Dir Wind Speed Gust Speed Precip Events Conditions
12:53 AM 32.0 °F 21.2 °F 30.0 °F 92% 29.67 in 10.0 mi WNW 16.1 mph 26.5 mph 0.00 in   Overcast
1:34 AM 32.0 °F 22.1 °F 30.9 °F 96% 29.63 in 1.8 mi WNW 13.8 mph - 0.01 in Snow Light Snow
1:42 AM 32.0 °F 22.5 °F 30.9 °F 96% 29.63 in 1.0 mi West 12.7 mph - 0.01 in Snow Light Snow
1:47 AM 32.0 °F 22.1 °F 30.2 °F 93% 29.63 in 2.0 mi WNW 13.8 mph - 0.01 in Snow Light Snow
1:53 AM 32.0 °F 23.0 °F 30.9 °F 96% 29.68 in 4.0 mi WNW 11.5 mph - 0.01 in Snow Light Snow
1:59 AM 32.0 °F 22.5 °F 30.9 °F 96% 29.63 in 8.0 mi WNW 12.7 mph - 0.00 in   Overcast
2:07 AM 32.0 °F 22.1 °F 30.9 °F 96% 29.63 in 10.0 mi WNW 13.8 mph - 0.00 in   Overcast
2:14 AM 32.0 °F 23.0 °F 30.9 °F 96% 29.64 in 10.0 mi WNW 11.5 mph - 0.00 in   Overcast
2:31 AM 32.0 °F 22.5 °F 30.0 °F 92% 29.64 in 10.0 mi WNW 12.7 mph - 0.00 in   Overcast
2:53 AM 32.0 °F 22.5 °F 30.9 °F 96% 29.70 in 10.0 mi West 12.7 mph - 0.00 in   Overcast
3:53 AM 32.0 °F 22.1 °F 30.0 °F 92% 29.70 in 10.0 mi WNW 13.8 mph - 0.00 in   Overcast
4:53 AM 32.0 °F 22.1 °F 30.9 °F 96% 29.71 in 3.0 mi West 13.8 mph - 0.00 in Snow Light Snow
5:01 AM 32.0 °F 23.0 °F 30.9 °F 96% 29.66 in 2.5 mi West 11.5 mph - 0.00 in Snow Light Snow
5:53 AM 32.0 °F 22.5 °F 30.9 °F 96% 29.72 in 2.5 mi West 12.7 mph - 0.00 in Snow Light Snow
6:30 AM 32.0 °F 22.5 °F 30.9 °F 96% 29.67 in 4.0 mi West 12.7 mph - 0.01 in Snow Light Snow
6:53 AM 32.0 °F 22.1 °F 30.9 °F 96% 29.73 in 4.0 mi WNW 13.8 mph - 0.01 in Snow Light Snow
7:41 AM 32.0 °F 21.2 °F 30.0 °F 92% 29.69 in 2.0 mi WNW 16.1 mph 25.3 mph 0.00 in Snow Light Snow
7:53 AM 32.0 °F 21.2 °F 30.0 °F 92% 29.75 in 2.5 mi WNW 16.1 mph 25.3 mph 0.00 in Snow Light Snow
8:05 AM 32.0 °F 21.6 °F 30.0 °F 92% 29.70 in 1.5 mi WNW 15.0 mph - 0.00 in Snow Light Snow
8:14 AM 32.0 °F 21.6 °F 30.9 °F 96% 29.70 in 2.0 mi WNW 15.0 mph - 0.00 in Snow Light Snow
8:40 AM 32.0 °F 21.6 °F 30.9 °F 96% 29.71 in 1.2 mi WNW 15.0 mph - 0.00 in Snow Light Snow
8:53 AM 32.0 °F 22.5 °F 30.9 °F 96% 29.76 in 1.5 mi WNW 12.7 mph - 0.00 in Snow Light Snow
9:15 AM 32.0 °F 21.6 °F 30.9 °F 96% 29.72 in 1.5 mi WNW 15.0 mph - 0.00 in Snow Light Snow
9:30 AM 32.0 °F 22.1 °F 30.9 °F 96% 29.73 in 3.0 mi WNW 13.8 mph 21.9 mph 0.00 in Snow Light Snow
9:38 AM 32.0 °F 21.2 °F 30.0 °F 92% 29.73 in 7.0 mi WNW 16.1 mph 23.0 mph 0.00 in   Overcast
9:53 AM 32.0 °F 22.1 °F 30.9 °F 96% 29.79 in 3.0 mi WNW 13.8 mph - 0.00 in   Overcast
10:24 AM 33.1 °F 23.0 °F 30.9 °F 92% 29.75 in 2.0 mi WNW 15.0 mph - 0.00 in Snow Light Snow
10:53 AM 33.1 °F 22.6 °F 30.9 °F 92% 29.81 in 8.0 mi WNW 16.1 mph - 0.00 in   Overcast
11:53 AM 34.0 °F 23.4 °F 32.0 °F 92% 29.82 in 9.0 mi WNW 17.3 mph 21.9 mph N/A   Overcast
12:00 PM 35.1 °F 25.2 °F 30.9 °F 85% 29.77 in 10.0 mi WNW 16.1 mph - N/A   Overcast
12:12 PM 35.1 °F 25.2 °F 32.0 °F 89% 29.77 in 10.0 mi WNW 16.1 mph - N/A   Overcast
12:53 PM 36.0 °F 27.1 °F 32.0 °F 86% 29.83 in 10.0 mi WNW 13.8 mph - N/A   Overcast
1:40 PM 37.0 °F 27.7 °F 30.0 °F 76% 29.80 in 10.0 mi WNW 16.1 mph 27.6 mph N/A   Overcast
1:53 PM 37.0 °F 28.5 °F 30.9 °F 79% 29.85 in 10.0 mi WNW 13.8 mph - N/A   Overcast
2:53 PM 37.0 °F 28.5 °F 32.0 °F 82% 29.86 in 10.0 mi NW 13.8 mph 23.0 mph N/A   Overcast
3:21 PM 37.0 °F 30.4 °F 32.0 °F 82% 29.82 in 10.0 mi NW 9.2 mph - N/A   Overcast
3:34 PM 37.0 °F 28.5 °F 30.0 °F 76% 29.82 in 10.0 mi WNW 13.8 mph 24.2 mph N/A   Overcast
4:22 PM 37.9 °F 29.6 °F 30.0 °F 73% 29.83 in 10.0 mi NW 13.8 mph 26.5 mph N/A   Mostly Cloudy
4:53 PM 37.0 °F 29.3 °F 30.0 °F 76% 29.89 in 10.0 mi NW 11.5 mph 20.7 mph N/A   Mostly Cloudy
5:53 PM 37.0 °F 30.4 °F 28.9 °F 73% 29.91 in 10.0 mi West 9.2 mph - N/A   Partly Cloudy
6:35 PM 37.0 °F 29.3 °F 30.0 °F 76% 29.88 in 10.0 mi WNW 11.5 mph - N/A   Mostly Cloudy
6:53 PM 36.0 °F 28.5 °F 30.0 °F 79% 29.94 in 10.0 mi WNW 10.4 mph - N/A   Overcast
7:53 PM 35.1 °F 27.9 °F 30.0 °F 82% 29.96 in 10.0 mi WNW 9.2 mph - N/A   Overcast
8:53 PM 36.0 °F 29.0 °F 30.0 °F 79% 29.97 in 10.0 mi West 9.2 mph - N/A   Overcast
9:53 PM 36.0 °F 28.5 °F 30.9 °F 82% 29.98 in 10.0 mi West 10.4 mph 20.7 mph N/A   Overcast
10:53 PM 35.1 °F 27.4 °F 30.0 °F 82% 29.98 in 10.0 mi WNW 10.4 mph - N/A   Overcast
11:53 PM 35.1 °F 28.6 °F 30.0 °F 82% 29.99 in 10.0 mi West 8.1 mph - N/A   Overcast